Location: Wanzleben
(52.0609°N, 11.4408°E)
Time: 11:18:08
(UTC+00:00)

Cosmos 1891 Rocket - Pass Details

Date: 18 September 2020
Orbit: 934 x 1018 km, 82.9° (Epoch: 25 October)

Event Time Altitude Azimuth Distance (km) Brightness Sun altitude
Rises 18:26:11 0° 175° (S) 3,642 7.3 -10.7°
Reaches altitude 10° 18:28:43 10° 172° (S) 2,687 6.6 -11.0°
Maximum altitude 18:34:44 61° 94° (E) 1,073 4.5 -11.9°
Drops below altitude 10° 18:40:41 10° 16° (NNE) 2,664 6.8 -12.8°
Sets 18:43:11 0° 13° (NNE) 3,608 7.6 -13.2°
